Home   Weather   Wodonga   Past weeks

Flag for Australia Past Weather in Wodonga, Victoria, Australia — Yesterday and Last 2 Weeks

Now
53 °F

Overcast.


Feels Like: 52 °F
Forecast: 47 / 52 °F
Wind: 6 mph from Northwest

Location: Albury Aeroport Aws

Current Time: Sep 29, 2016 at 11:37:59 AM

Latest Report: Sep 29, 2016 at 9:00 AM


Visibility: N/A

Pressure: 29.32 "Hg

Humidity: 89%

Dew Point: 50 °F

Location of WodongaLocation

Past Weather in Wodonga — Graph

°F

Wodonga Temperature Yesterday

Maximum temperature yesterday: 63 °F (at 2:00 PM)
Minimum temperature yesterday: 42 °F (at 6:00 AM)
Average temperature yesterday: 55 °F

High & Low Weather Summary for the Past Weeks

 TemperatureHumidityPressure
High68 °F (Sep 24, 3:00 PM)100% (Sep 17, 5:00 AM)30.20 "Hg (Sep 17, 5:00 AM)
Low41 °F (Sep 17, 5:00 AM)45% (Sep 24, 3:00 PM)29.29 "Hg (Sep 29, 6:00 AM)
Average53 °F79%29.88 "Hg
* Reported Sep 14 9:00 AM — Sep 29 9:00 AM, Wodonga, Weather by CustomWeather, © 2016

Note: Actual official high and low records may vary slightly from our data, if they occured in-between our weather recording intervals... More about our weather records

Advertising

Wodonga Weather History for the Previous 24 Hours

Scroll right to see more
 ConditionsComfort  
Time TempWeatherWind HumidityBarometerVisibility
9:00 AM
Thu, Sep 29
53 °FOvercast.6 mph89%29.32 "HgN/A
8:00 AM52 °FCool.6 mph92%29.32 "HgN/A
6:00 AM54 °FOvercast.20 mph96%29.29 "Hg6 mi
5:00 AM53 °FCool.15 mph96%29.32 "HgN/A
3:00 AM54 °FFog.14 mph85%29.41 "HgN/A
2:00 AM56 °FCool.13 mph76%29.47 "HgN/A
12:00 AM59 °FPassing clouds.10 mph60%29.54 "HgN/A
11:00 PM
Wed, Sep 28
57 °FCool.6 mph65%29.60 "HgN/A
9:00 PM58 °FOvercast.13 mph62%29.62 "HgN/A
8:00 PM57 °FCool.7 mph70%29.67 "HgN/A
6:00 PM60 °FRefreshingly cool.8 mph56%29.70 "HgN/A
5:00 PM61 °FRefreshingly cool.10 mph53%29.71 "HgN/A
3:00 PM63 °FMild.12 mph49%29.75 "HgN/A
2:00 PM63 °FMild.8 mph52%29.80 "HgN/A
12:00 PM61 °FRefreshingly cool.7 mph51%29.90 "HgN/A
11:00 AM60 °FRefreshingly cool.5 mph59%29.92 "HgN/A
Weather by CustomWeather, © 2016

See weather overviewHow to use our weather pages